Theta_e
310 309 312 313 313 312 314 314 315 313 313 312 308 303 299 296 291 289 289 288 287 286 286 285 284 283 283 282 281 280 280 280 279 279 279 279 279 279 279 279 280 279 279 279
307 310 312 312 311 309 311 311 312 312 313 309 302 300 297 295 292 291 290 289 287 286 285 285 284 283 283 282 281 280 280 279 279 279 278 278 278 278 278 279 279 279 279 278
311 310 311 312 311 311 311 310 311 311 311 302 301 300 297 295 293 292 289 288 287 286 285 285 284 283 282 281 281 280 280 279 279 278 278 278 278 278 278 278 278 278 279 278
313 312 313 311 306 309 310 310 310 308 303 302 300 297 296 294 293 291 289 288 287 285 284 284 284 283 283 281 280 280 280 279 279 278 278 277 277 277 277 277 277 277 277 278
312 312 311 309 307 307 308 309 306 308 301 297 295 295 294 292 292 290 288 287 285 284 283 284 284 283 283 282 281 280 279 279 278 278 277 277 277 277 277 277 276 276 276 276
312 313 312 310 306 304 305 309 302 302 300 297 297 303 301 292 290 287 286 285 284 284 283 283 283 282 282 282 281 280 280 279 278 277 277 276 276 276 276 276 276 275 274 274
313 313 312 309 305 304 308 308 301 300 299 297 299 298 293 291 289 287 286 284 283 283 283 283 282 282 282 281 281 280 280 279 279 278 277 276 276 276 275 275 275 275 275 273
312 313 311 304 303 308 305 300 299 298 297 297 294 291 291 289 287 286 285 284 283 282 282 282 282 282 282 281 281 280 280 279 279 278 278 276 276 276 275 275 275 275 275 275
310 310 303 302 303 301 301 301 298 297 295 295 293 291 290 289 288 285 284 283 282 282 281 281 281 281 281 281 280 280 280 279 279 278 278 278 277 276 276 276 276 276 275 275
307 305 303 302 299 299 299 299 296 295 294 293 293 291 290 288 287 285 283 283 282 281 281 281 280 280 281 280 280 280 279 279 278 278 277 277 278 277 276 276 275 275 275 275
306 303 301 301 300 299 297 296 294 293 293 292 291 290 290 288 286 284 283 282 281 281 281 280 280 279 280 280 279 279 279 278 278 277 277 277 277 277 276 276 275 275 274 274
311 303 303 301 299 296 297 295 293 292 291 291 291 290 289 287 285 283 283 282 281 281 280 279 279 279 279 279 279 279 279 278 277 277 276 276 275 275 275 274 274 274 274 274
303 298 297 296 295 295 295 294 292 292 291 291 289 289 288 287 284 283 282 282 281 280 279 279 279 278 278 278 279 279 278 278 277 276 276 275 275 274 274 273 272 272 272 272
297 297 297 296 297 293 293 292 291 290 290 289 289 287 287 286 284 283 283 282 281 280 279 278 278 278 278 277 277 277 277 276 276 275 274 274 273 273 273 273 272 272 271 271
297 296 297 294 293 292 290 290 290 290 289 288 287 286 285 285 284 283 282 281 280 279 278 278 277 277 278 278 277 277 276 276 275 274 274 273 273 272 272 272 272 272 271 271
294 294 294 294 292 291 290 290 290 289 289 287 286 285 285 284 283 281 281 280 280 279 278 277 276 277 277 277 276 276 276 275 275 274 273 273 273 273 272 272 272 272 272 272
296 295 293 293 292 291 291 290 290 289 287 287 285 284 283 282 281 280 280 280 280 279 279 277 276 275 276 277 276 276 275 275 275 274 274 273 273 273 273 272 272 272 272 271
297 296 294 294 292 291 290 288 287 286 285 285 284 283 281 280 281 280 279 279 278 278 277 276 275 274 274 275 276 275 275 274 274 274 273 273 273 273 273 272 272 272 272 271
295 295 293 292 291 291 290 288 287 286 285 284 283 282 282 281 281 280 278 278 277 276 276 275 274 273 273 273 275 275 274 274 274 274 273 273 273 272 272 272 272 271 269 268
294 293 292 291 291 290 289 288 287 286 285 284 282 281 280 280 279 278 278 277 277 277 276 275 273 273 273 273 273 273 273 273 272 272 272 272 272 272 271 271 270 268 267 266
293 292 291 290 288 289 290 289 287 284 284 284 283 281 280 279 278 278 276 276 277 276 276 275 274 273 273 273 273 273 273 273 272 272 272 271 271 270 269 267 266 265 264 264
289 287 286 287 286 285 287 287 286 285 283 282 281 280 279 277 277 276 277 277 276 275 275 275 274 273 274 273 273 273 273 273 273 272 271 270 269 267 266 265 264 263 261 261
286 286 285 285 285 284 284 284 285 285 283 281 281 280 279 278 277 276 277 277 277 276 276 276 275 274 274 274 274 273 273 273 272 271 269 268 267 266 264 263 262 261 260 259
284 284 283 283 284 283 282 280 282 282 282 281 280 280 279 277 276 277 278 277 277 275 276 275 275 275 274 274 274 273 273 271 270 268 267 266 265 263 262 261 260 259 258 258
283 282 282 283 283 281 280 280 280 279 279 278 278 278 278 278 279 277 277 276 276 275 275 275 275 275 274 274 273 272 270 269 267 266 265 263 262 261 260 259 258 257 257 256
283 283 282 283 283 281 280 280 280 279 278 278 277 277 278 278 278 277 276 276 275 275 275 275 274 274 273 272 270 269 268 266 264 263 262 261 260 259 258 258 257 257 256 255
284 284 283 282 282 282 282 282 281 280 279 278 277 277 277 276 277 276 276 275 275 275 274 273 272 271 270 269 268 266 264 263 262 261 260 259 258 258 257 257 256 256 255 254
Wind_Speed
9 7 6 5 9 8 11 12 11 15 11 10 6 14 14 13 12 11 10 9 7 6 6 6 7 11 14 15 14 17 19 20 21 21 22 24 27 29 30 34 36 37 39 42
4 7 9 11 13 13 16 15 15 17 20 6 0 9 13 14 14 13 12 11 9 9 8 7 7 11 15 14 13 15 18 19 19 20 22 23 25 26 28 30 32 33 36 37
12 4 3 9 15 18 10 10 10 12 13 6 6 10 14 15 15 14 13 12 10 9 9 8 8 11 14 12 11 14 17 17 19 19 21 22 23 26 29 29 30 32 33 34
4 3 5 4 1 6 13 14 14 11 4 6 2 3 9 12 15 13 13 12 11 11 10 9 11 12 12 12 13 14 16 17 18 18 20 21 23 24 26 26 27 29 31 31
3 7 6 7 4 5 6 4 5 15 8 5 8 7 3 9 10 12 12 15 14 14 13 12 12 12 12 12 12 14 16 17 17 17 19 20 22 22 22 22 25 25 26 29
5 5 6 2 3 4 2 4 0 7 11 13 12 5 4 13 12 15 18 17 16 15 14 13 13 13 14 12 12 12 12 14 16 17 18 19 19 20 20 21 21 23 28 26
10 5 5 4 6 7 1 2 2 6 11 14 7 0 5 15 14 20 20 18 16 16 14 13 12 13 14 12 11 10 10 11 13 16 19 17 16 17 17 18 20 20 22 28
6 4 6 6 4 5 2 1 2 4 8 11 6 9 15 15 15 21 20 19 16 15 13 12 11 12 12 11 10 10 10 10 11 13 13 16 15 14 15 15 17 19 19 20
7 4 1 1 2 2 3 3 4 5 8 11 12 12 15 16 16 19 20 18 16 15 14 11 10 10 12 10 9 9 9 10 10 11 11 10 13 14 15 16 17 17 19 20
1 1 2 4 2 2 2 2 5 6 12 13 11 15 16 15 15 19 18 17 15 15 13 12 10 9 10 9 8 8 8 8 8 9 10 11 10 13 14 15 16 17 17 19
3 4 2 6 5 6 4 6 8 10 10 11 15 15 16 15 17 18 18 16 16 15 13 12 11 10 10 10 9 8 7 6 6 7 7 8 11 11 11 13 14 13 14 14
3 3 2 1 7 7 7 7 10 12 11 11 15 16 17 15 19 20 18 17 15 14 14 13 12 10 10 10 9 8 7 6 5 5 5 5 5 7 11 10 11 12 13 13
2 5 3 6 6 4 6 8 9 9 12 14 15 19 20 19 19 19 19 18 17 15 14 14 13 11 10 9 9 8 7 7 6 5 4 5 5 5 5 7 9 10 11 12
8 8 5 5 4 6 9 11 11 10 13 14 18 17 19 17 18 18 19 18 17 15 14 13 12 12 11 9 8 9 8 8 7 7 6 6 5 4 4 4 5 6 8 8
2 1 2 9 11 10 12 13 11 10 11 13 15 17 17 17 16 15 14 15 14 15 14 13 12 13 12 11 10 10 10 10 8 7 6 5 4 3 3 2 2 3 5 6
6 8 9 11 11 11 10 9 10 9 10 11 13 13 13 12 12 13 14 15 16 15 13 15 14 13 13 12 11 9 7 7 8 6 5 3 2 1 0 1 2 4 5 7
9 5 7 9 10 11 9 8 8 10 11 12 12 13 13 12 11 12 13 16 14 12 13 14 13 13 13 12 11 8 8 8 8 6 4 3 2 2 3 3 4 6 7 7
2 3 7 10 11 9 7 8 8 11 11 13 15 17 18 18 15 17 17 15 12 10 10 10 11 11 11 11 11 10 9 7 6 5 5 5 4 4 5 6 7 8 9 9
6 9 9 12 12 11 9 10 10 11 12 16 19 20 21 20 17 18 18 16 14 12 12 11 11 10 10 11 11 10 9 6 5 4 5 5 6 6 6 7 8 9 8 8
7 9 12 12 12 11 10 10 11 12 13 16 15 14 14 14 15 19 19 17 14 8 10 13 12 12 11 11 11 9 7 4 3 3 4 4 5 6 7 8 7 5 6 7
6 10 11 12 11 9 11 13 15 15 15 16 17 18 17 15 16 17 15 9 11 9 10 13 13 12 12 12 11 9 6 3 2 3 4 5 6 6 5 4 5 6 9 11
6 8 10 13 13 10 9 11 11 12 15 14 12 11 13 14 15 15 11 7 9 12 11 15 14 11 11 11 9 9 8 5 5 5 6 5 3 3 5 7 9 10 12 13
10 11 12 12 13 11 11 10 10 12 14 15 14 13 13 13 15 12 8 10 11 14 12 14 12 11 10 9 7 7 7 6 5 3 1 2 4 6 8 10 12 14 15 15
12 11 11 11 15 13 9 6 8 8 9 10 9 10 12 12 10 9 6 10 10 15 15 14 12 10 8 7 6 6 4 3 2 1 3 5 7 8 10 11 13 14 15 17
13 12 13 12 10 7 12 12 12 11 11 10 10 10 8 8 5 12 10 13 13 18 16 13 9 8 7 6 5 4 3 2 1 3 4 6 7 9 11 13 14 15 16 17
10 9 8 8 9 10 11 10 9 9 10 9 8 10 11 10 13 15 16 18 19 17 15 12 9 8 7 6 5 2 1 1 3 4 5 7 9 11 12 13 14 15 16 17
10 10 9 8 7 8 8 8 8 8 8 10 11 12 13 16 18 18 19 19 17 14 13 12 10 8 6 3 1 0 1 2 3 4 7 9 10 11 12 13 14 15 17 18
Wind_Direction
255 250 219 249 249 229 239 242 237 269 260 267 211 210 187 178 158 156 160 161 153 129 103 80 60 59 57 51 45 55 52 49 44 40 42 42 39 39 38 38 41 40 40 44
271 258 229 249 246 239 239 246 255 255 267 277 156 142 164 177 168 171 169 165 152 134 117 95 73 68 65 56 46 62 58 55 49 45 46 45 45 43 44 43 45 45 43 43
268 217 235 272 244 227 226 228 238 244 249 180 190 187 183 175 176 174 168 163 153 134 123 113 95 80 73 69 59 59 64 58 56 50 46 47 48 48 46 43 44 45 46 44
287 172 239 246 211 218 222 247 230 246 205 184 177 143 171 176 170 167 160 158 147 142 132 124 112 94 86 74 69 65 63 61 58 56 54 50 49 51 52 47 47 47 46 42
241 251 309 285 189 191 198 283 235 233 163 134 125 123 143 171 167 155 155 153 151 149 143 130 119 110 100 84 74 68 63 61 60 59 59 56 53 49 51 57 54 52 54 51
221 244 247 227 197 164 163 271 166 172 168 157 155 189 190 170 148 142 146 148 150 153 142 130 126 120 107 97 85 75 70 68 65 62 63 58 58 54 54 54 58 55 54 52
232 245 256 230 173 142 214 345 152 170 166 166 186 39 138 143 143 146 149 150 149 150 142 135 132 127 114 110 100 96 85 82 79 70 67 63 59 56 56 56 55 51 48 46
201 235 263 146 130 195 113 86 153 153 168 171 121 125 144 142 144 149 151 153 152 145 142 140 138 132 125 119 121 112 102 88 79 77 72 65 67 60 55 53 54 54 52 49
199 218 72 158 65 113 150 146 180 168 166 156 139 149 152 150 153 156 156 157 156 147 140 142 145 144 135 134 131 121 108 96 87 79 73 64 59 55 52 48 47 46 47 47
191 192 207 184 130 146 169 147 154 158 159 156 151 155 155 154 156 158 158 156 152 148 145 143 149 148 143 144 141 129 111 99 90 82 74 65 63 52 49 45 44 42 40 41
244 236 237 217 197 167 136 126 126 138 154 157 151 161 160 159 160 160 157 156 159 160 159 159 156 152 153 154 150 137 123 112 94 85 79 76 67 59 57 53 49 47 44 41
220 187 123 121 167 148 149 156 150 145 147 159 162 160 163 162 163 161 159 161 163 164 163 164 163 159 163 165 160 150 136 126 115 100 86 84 85 76 65 64 58 55 53 48
160 120 74 97 114 130 134 144 149 156 159 157 164 164 164 159 165 165 163 167 169 171 166 167 163 160 160 165 164 158 150 144 138 119 108 105 96 87 80 62 60 55 48 47
118 117 89 175 162 142 134 133 134 139 149 156 161 162 158 159 160 169 174 175 168 163 168 170 168 169 172 165 159 164 159 152 144 135 128 123 115 110 90 77 53 40 47 38
78 18 116 122 126 122 124 130 131 140 145 150 160 159 163 163 171 174 170 168 164 164 167 172 176 182 180 179 172 164 161 162 157 146 138 134 121 101 84 77 35 13 11 13
96 101 118 138 138 137 138 141 137 151 156 153 157 162 165 164 161 161 164 169 167 179 180 184 187 188 187 184 177 168 170 179 174 165 158 159 165 158 57 314 326 337 342 345
120 126 138 147 156 158 171 163 160 158 160 166 163 155 155 155 155 162 174 190 198 198 196 195 193 191 188 186 186 184 180 179 187 193 195 199 216 245 270 294 312 317 318 326
117 149 164 161 160 158 155 154 154 163 170 171 166 168 169 169 177 183 185 184 184 183 192 195 194 191 192 194 192 188 184 183 193 208 227 238 250 275 283 294 302 307 312 314
116 126 138 148 158 157 155 162 170 177 175 175 174 181 190 192 191 186 180 181 184 184 192 189 189 187 184 182 181 178 180 192 213 231 247 257 262 278 291 296 300 304 309 317
117 119 129 135 149 153 152 163 165 172 180 181 181 180 188 194 187 181 184 189 198 199 199 193 189 186 181 175 177 177 175 187 220 236 244 257 278 293 302 309 315 328 337 337
134 138 134 138 138 145 163 164 165 169 177 184 186 193 193 182 183 183 178 192 204 195 191 190 190 187 185 181 180 187 198 214 252 257 271 286 297 306 319 338 348 341 335 331
132 131 138 144 141 136 156 167 175 168 174 181 187 181 175 175 180 186 197 196 190 185 181 186 187 188 189 190 205 219 223 241 273 286 295 304 322 333 336 335 333 332 330 329
122 132 135 142 142 141 141 155 170 176 178 184 183 181 183 186 183 170 185 190 185 188 183 177 178 175 179 193 210 213 228 256 281 286 293 323 331 330 330 331 331 330 329 329
114 117 119 129 134 132 121 127 144 154 164 166 176 181 175 160 169 180 177 180 175 171 168 166 167 175 188 198 199 211 231 238 219 260 316 323 328 331 331 332 332 330 329 329
110 114 123 132 126 118 130 134 129 130 133 132 141 147 154 159 167 164 160 164 165 162 158 159 169 176 183 189 195 190 181 189 272 316 326 333 337 338 336 334 332 332 332 332
105 98 101 110 123 134 137 141 131 139 138 126 131 146 148 147 147 149 150 149 149 156 158 161 168 171 159 152 152 162 211 304 327 339 342 341 339 336 335 334 334 335 336 336
104 109 109 104 111 129 136 140 141 147 153 148 133 140 143 144 148 145 148 149 150 151 148 146 146 146 141 140 144 130 345 350 350 345 342 339 337 337 338 338 339 340 339 337